Wind_Speed
53 54 53 53 52 49 47 43 39 37 38 36 34 34 33 30 26 24 24 23 23 22 21 22 23 24 26 26 27 27 28 29 30 32 33 35 36 38 40 41 40 39
52 52 51 51 51 49 47 43 38 37 37 35 33 33 30 26 24 23 24 23 23 22 22 23 24 25 26 25 25 26 27 29 30 31 33 35 37 39 40 41 39 38
51 51 51 50 49 48 46 41 36 37 36 33 32 31 28 25 24 24 24 23 23 23 22 23 24 24 24 23 24 26 27 29 31 32 33 34 35 36 37 37 36 36
51 50 50 49 47 46 43 39 37 38 35 33 32 30 26 25 25 25 25 24 24 23 23 23 24 24 24 24 25 26 28 30 30 30 30 30 31 31 31 31 33 34
50 49 48 47 46 44 40 39 39 38 35 34 32 29 27 26 26 26 26 25 24 23 24 24 25 25 24 24 25 27 28 28 27 25 25 26 27 27 26 27 29 31
48 47 46 46 44 42 39 40 39 37 36 34 32 30 28 27 26 26 26 25 24 24 25 25 25 25 24 24 25 26 26 24 22 21 23 25 25 23 22 24 27 29
47 46 45 44 42 40 40 40 39 37 36 34 31 29 28 27 26 26 26 26 26 25 25 26 25 23 23 24 24 24 23 20 19 20 22 23 22 21 20 22 24 26
44 43 42 41 40 40 41 40 39 37 35 33 30 28 27 27 26 26 27 27 26 26 26 26 24 23 22 23 23 22 20 17 17 19 20 20 20 20 20 21 23 25
40 39 39 40 40 41 41 40 38 37 35 32 30 29 28 27 27 27 27 27 26 26 27 26 24 22 21 21 21 20 18 17 17 17 17 16 15 16 17 19 21 24
37 38 39 40 41 41 40 39 37 36 34 32 31 30 29 27 27 28 27 27 27 27 27 25 23 21 20 20 21 19 18 17 18 18 15 13 12 12 14 15 18 22
36 37 39 39 40 39 38 37 36 35 33 32 31 30 28 28 28 28 28 28 28 27 26 24 22 20 19 20 20 19 17 18 19 18 15 12 11 12 13 14 16 19
35 37 38 38 38 37 37 36 36 34 33 33 32 30 29 29 29 29 28 28 28 27 26 24 21 20 19 19 20 19 17 17 18 18 16 15 14 13 14 15 16 18
35 36 36 36 36 36 36 36 35 34 33 33 31 30 29 29 29 29 28 28 27 26 26 24 21 20 20 20 20 20 19 18 18 18 17 17 16 15 15 15 16 18
33 33 33 34 35 35 36 35 34 34 33 32 31 30 30 29 29 28 27 27 27 26 26 24 21 20 20 19 20 21 21 19 18 18 18 18 18 17 17 16 16 17
31 32 33 34 35 36 36 35 34 33 32 31 30 29 29 29 28 28 27 27 27 26 25 24 23 21 20 19 19 20 20 19 18 17 17 18 18 18 17 17 16 17
31 32 33 35 36 36 35 34 34 33 32 31 30 29 29 29 28 29 28 28 27 26 25 25 24 21 19 19 19 18 18 17 16 15 16 16 17 17 16 16 16 17
31 32 33 35 35 35 35 34 33 33 32 30 30 29 29 28 29 29 29 28 27 25 24 24 24 21 19 18 19 19 18 17 16 15 15 15 16 16 16 16 16 16
31 32 34 35 35 35 34 33 33 33 31 30 30 29 28 28 29 29 29 28 27 25 24 24 23 21 19 18 19 20 20 19 18 17 17 17 17 15 15 15 15 16
30 32 34 35 35 34 33 33 32 32 31 30 30 29 28 28 28 27 27 27 27 26 25 23 22 22 20 18 18 20 22 20 19 19 19 18 16 15 14 16 16 16
30 32 33 33 33 33 33 32 32 31 31 30 29 29 28 28 27 26 26 26 25 25 24 23 22 21 21 19 18 19 23 22 21 20 19 17 16 15 15 16 17 17
30 31 32 32 32 33 32 32 31 31 31 30 29 29 28 27 26 25 24 24 23 23 23 22 21 21 20 20 18 18 22 23 22 21 18 17 16 16 15 16 16 16
28 30 31 31 32 33 32 32 32 32 31 30 30 29 28 26 25 24 24 23 22 22 21 21 20 20 19 19 18 18 20 22 23 22 20 18 17 16 16 15 15 16
27 29 29 31 32 33 33 32 32 32 31 31 30 30 28 27 26 24 24 23 22 22 21 20 19 19 19 19 19 19 20 22 24 23 22 21 18 17 16 16 16 16
26 27 29 31 33 33 32 32 32 32 31 31 30 29 28 27 25 24 24 23 22 22 20 19 18 18 18 18 18 19 20 21 23 24 24 23 21 18 17 17 17 17
25 27 29 30 31 31 31 31 31 31 30 30 29 28 27 26 25 24 23 23 22 21 20 19 19 18 18 18 18 19 20 21 22 24 25 25 24 22 20 19 19 19
24 27 29 30 30 29 29 30 30 30 30 29 29 28 27 26 25 24 23 23 23 22 21 20 20 19 19 19 19 19 20 21 22 23 25 26 26 25 23 21 20 21
Wind_Direction
234 234 234 235 236 238 240 240 240 234 224 220 220 219 219 220 220 220 223 226 228 229 229 231 233 235 237 238 241 245 248 252 255 257 259 260 261 263 264 265 265 265
234 234 234 234 235 237 238 239 237 228 221 220 219 218 219 219 217 217 221 223 225 226 226 230 233 236 239 242 246 251 255 259 262 264 265 266 267 267 266 266 265 265
233 233 233 233 234 234 235 235 229 221 219 219 216 216 217 215 214 217 221 224 226 227 229 232 237 241 245 249 252 256 260 263 267 269 270 270 270 268 266 265 264 262
231 231 231 232 233 233 233 229 219 214 216 216 214 215 214 213 215 219 222 225 227 228 231 235 239 243 246 249 253 257 261 266 269 269 269 271 271 269 264 260 260 261
231 230 230 230 231 231 228 221 213 211 213 212 213 214 213 214 217 220 223 226 227 228 231 234 237 240 243 247 253 258 263 266 267 268 270 271 270 267 260 253 254 258
229 228 228 228 229 227 221 214 211 211 211 210 212 213 213 215 218 221 224 225 227 229 231 233 236 239 243 249 255 260 262 262 264 269 271 268 264 260 254 247 247 251
227 226 226 226 225 221 215 210 210 212 211 211 212 213 215 217 218 220 223 225 228 229 230 233 235 238 244 251 255 256 256 257 262 266 265 260 256 253 248 243 244 247
225 224 223 222 218 213 210 209 210 211 211 211 212 214 216 217 218 221 224 226 227 228 229 232 234 238 245 250 251 250 249 253 258 258 255 253 252 252 248 243 243 246
223 221 219 216 211 208 207 208 209 209 209 210 211 214 215 216 218 222 224 226 225 225 227 230 232 238 244 246 244 243 244 246 247 246 244 246 251 254 252 247 245 246
219 217 214 210 207 206 206 207 207 207 207 209 212 213 214 215 218 222 223 223 221 222 225 227 230 237 242 242 238 236 237 238 236 235 235 237 245 250 251 249 249 249
214 212 210 208 206 206 206 206 206 206 206 209 212 212 213 215 218 220 221 220 219 221 222 224 228 236 240 237 233 231 232 232 231 230 230 233 238 243 245 245 247 250
208 208 207 207 207 206 206 205 205 205 207 210 212 211 212 214 216 217 218 218 219 219 220 222 226 232 236 232 227 226 226 227 229 229 231 235 241 243 242 242 242 245
206 206 207 208 208 207 206 205 204 206 209 211 211 211 211 213 214 215 216 216 218 218 217 219 223 228 231 228 223 222 223 225 226 229 234 239 244 245 243 243 243 242
207 208 208 208 208 207 206 204 204 207 210 211 211 211 211 212 213 214 215 215 217 217 216 218 221 225 228 227 223 222 223 226 227 230 236 241 242 243 242 241 242 242
210 210 210 209 208 206 204 204 205 207 209 209 210 209 210 211 213 213 214 215 217 217 217 218 221 224 226 226 223 221 222 224 227 231 237 243 245 245 244 242 240 240
214 213 211 209 206 204 203 204 205 207 208 208 208 209 209 211 213 213 214 215 217 218 218 219 221 223 224 223 219 218 219 217 220 229 235 244 249 249 249 247 241 238
216 214 211 207 204 202 202 204 205 206 207 207 208 209 210 212 213 214 214 214 216 218 219 221 221 222 224 222 216 214 214 211 212 221 231 240 246 247 250 250 242 235
214 211 207 204 202 201 202 203 204 205 206 207 209 210 211 211 211 213 213 213 215 217 219 221 222 223 224 222 217 213 212 210 208 213 222 231 238 241 241 241 236 231
214 208 205 202 202 202 203 203 203 205 207 209 211 210 209 208 208 210 211 212 214 215 218 220 220 222 224 224 219 214 212 210 209 211 215 220 228 233 230 229 228 227
215 209 205 204 204 204 203 203 203 206 209 210 211 209 206 205 205 207 208 210 213 214 216 218 218 220 222 223 222 215 212 212 211 210 210 212 218 224 223 223 223 225
218 212 208 206 206 205 204 204 205 208 210 211 210 208 206 205 204 204 206 209 211 213 215 217 218 219 220 221 221 216 213 213 210 207 205 204 207 213 216 216 218 222
221 214 210 207 206 205 205 205 207 209 210 210 209 208 207 207 205 205 206 208 211 213 215 216 218 220 221 221 220 216 213 211 208 205 202 200 200 203 206 208 209 213
223 216 212 208 206 207 208 208 209 210 210 209 209 209 208 208 206 205 205 207 211 214 216 217 218 220 222 223 222 218 213 211 209 206 202 200 199 199 200 202 203 206
226 219 214 211 209 209 210 210 211 211 209 209 210 211 210 209 207 206 206 208 210 213 216 218 220 223 224 225 226 224 219 215 213 209 205 201 201 201 200 200 200 202
230 223 218 216 214 213 213 214 213 212 211 212 212 213 213 213 212 210 209 209 210 212 214 215 218 222 225 225 227 228 226 223 218 214 210 205 202 202 202 201 199 200
239 232 227 222 218 216 217 218 217 215 215 215 215 216 216 216 216 214 212 211 212 212 213 214 215 219 223 226 227 227 229 229 226 222 218 212 207 205 204 203 201 200
Height
1414 1416 1419 1422 1426 1429 1432 1435 1437 1440 1443 1446 1448 1451 1455 1458 1460 1462 1463 1465 1466 1468 1469 1471 1472 1474 1475 1476 1477 1478 1478 1479 1479 1480 1480 1481 1481 1481 1482 1482 1482 1483
1409 1412 1415 1418 1421 1424 1427 1431 1434 1437 1440 1443 1446 1450 1453 1455 1457 1458 1460 1462 1463 1465 1466 1468 1469 1470 1471 1472 1473 1473 1474 1474 1475 1476 1476 1476 1476 1476 1476 1477 1478 1479
1404 1407 1410 1413 1416 1419 1423 1427 1431 1434 1437 1441 1444 1447 1449 1452 1453 1455 1457 1458 1460 1461 1463 1464 1465 1466 1467 1468 1469 1469 1470 1470 1471 1472 1472 1471 1471 1471 1471 1472 1473 1474
1399 1402 1405 1409 1412 1416 1420 1424 1427 1430 1434 1437 1440 1444 1446 1448 1450 1451 1453 1455 1456 1458 1459 1460 1461 1462 1464 1465 1465 1466 1466 1467 1467 1468 1468 1467 1467 1466 1467 1468 1469 1470
1395 1398 1402 1405 1408 1412 1416 1419 1423 1426 1430 1434 1437 1440 1442 1444 1446 1448 1450 1451 1453 1455 1456 1457 1458 1459 1461 1462 1462 1462 1463 1463 1463 1464 1463 1463 1463 1463 1463 1464 1466 1466
1391 1394 1398 1401 1405 1409 1412 1415 1419 1423 1426 1430 1434 1436 1439 1441 1443 1444 1446 1448 1450 1451 1452 1454 1455 1456 1457 1458 1458 1459 1459 1459 1460 1460 1460 1460 1460 1460 1460 1461 1462 1463
1387 1390 1394 1398 1401 1405 1409 1413 1416 1420 1424 1428 1430 1433 1435 1437 1439 1441 1443 1445 1447 1448 1449 1450 1452 1453 1454 1455 1455 1455 1455 1456 1456 1457 1457 1457 1458 1458 1458 1458 1459 1460
1384 1388 1391 1395 1398 1402 1405 1409 1413 1417 1421 1424 1427 1430 1432 1434 1436 1438 1440 1442 1443 1445 1446 1447 1449 1450 1451 1451 1451 1452 1452 1453 1454 1454 1455 1455 1455 1455 1455 1456 1457 1458
1382 1385 1388 1391 1394 1398 1402 1406 1410 1414 1418 1421 1424 1427 1429 1431 1433 1435 1437 1438 1440 1441 1443 1444 1445 1447 1448 1448 1448 1449 1449 1450 1451 1452 1452 1452 1452 1452 1453 1454 1454 1455
1379 1382 1385 1388 1391 1395 1399 1404 1408 1411 1415 1418 1421 1424 1426 1428 1430 1431 1433 1435 1436 1438 1439 1441 1443 1444 1444 1445 1445 1446 1447 1448 1449 1450 1450 1450 1450 1450 1451 1452 1453 1453
1376 1379 1382 1386 1389 1393 1397 1401 1405 1408 1412 1415 1418 1420 1423 1425 1427 1428 1430 1432 1433 1435 1436 1438 1440 1441 1441 1442 1443 1443 1444 1445 1446 1447 1448 1448 1448 1449 1449 1450 1451 1452
1374 1377 1380 1384 1388 1392 1395 1399 1403 1406 1409 1412 1414 1417 1420 1422 1424 1425 1427 1429 1430 1432 1434 1435 1437 1438 1438 1439 1440 1441 1441 1442 1443 1444 1445 1446 1446 1447 1448 1448 1449 1451
1372 1375 1379 1383 1386 1390 1394 1397 1400 1404 1406 1409 1412 1414 1417 1419 1421 1423 1424 1426 1428 1429 1431 1432 1434 1435 1436 1436 1437 1438 1438 1439 1440 1441 1442 1443 1444 1445 1446 1447 1448 1449
1371 1375 1378 1382 1385 1389 1392 1395 1398 1401 1404 1407 1409 1411 1414 1416 1418 1420 1422 1424 1425 1427 1428 1430 1431 1432 1432 1433 1434 1434 1435 1436 1437 1439 1440 1441 1442 1443 1444 1445 1446 1447
1371 1374 1377 1380 1383 1386 1390 1393 1396 1399 1401 1404 1406 1409 1411 1414 1416 1418 1419 1421 1422 1424 1425 1427 1428 1429 1430 1430 1431 1432 1432 1433 1435 1436 1437 1438 1439 1440 1442 1443 1444 1445
1370 1373 1375 1378 1381 1384 1388 1391 1394 1397 1399 1401 1404 1406 1409 1411 1413 1415 1416 1418 1419 1421 1423 1424 1425 1426 1427 1428 1429 1429 1430 1431 1432 1433 1435 1436 1437 1438 1439 1441 1442 1443
1368 1371 1373 1376 1379 1383 1386 1389 1392 1394 1396 1399 1401 1404 1406 1408 1410 1412 1413 1415 1417 1418 1420 1421 1422 1424 1425 1425 1426 1427 1428 1429 1430 1431 1433 1434 1435 1436 1437 1439 1440 1442
1367 1369 1372 1375 1378 1381 1384 1387 1389 1391 1394 1396 1398 1401 1403 1405 1407 1409 1411 1413 1414 1416 1417 1418 1420 1421 1422 1423 1424 1425 1425 1426 1428 1430 1431 1432 1433 1434 1435 1436 1438 1439
1365 1367 1370 1373 1376 1379 1382 1384 1387 1389 1391 1393 1396 1398 1400 1402 1404 1406 1408 1410 1411 1413 1415 1416 1417 1419 1420 1421 1422 1423 1423 1424 1426 1428 1429 1430 1431 1432 1433 1435 1436 1437
1364 1366 1369 1372 1374 1377 1379 1382 1384 1386 1389 1391 1393 1396 1397 1399 1402 1403 1405 1407 1409 1411 1412 1414 1415 1416 1417 1419 1420 1421 1422 1423 1424 1426 1427 1428 1429 1430 1432 1433 1434 1436
1362 1364 1367 1370 1372 1375 1377 1379 1382 1384 1386 1389 1391 1393 1395 1397 1399 1401 1403 1405 1406 1408 1410 1411 1412 1414 1415 1416 1418 1419 1420 1421 1422 1424 1425 1426 1428 1429 1430 1431 1433 1434
1360 1363 1365 1367 1370 1372 1374 1377 1379 1382 1384 1386 1388 1391 1393 1395 1397 1399 1401 1402 1404 1405 1407 1408 1410 1411 1412 1414 1415 1417 1418 1419 1420 1422 1423 1424 1426 1427 1429 1430 1431 1433
1358 1360 1363 1365 1367 1369 1371 1374 1377 1379 1381 1384 1386 1388 1390 1392 1394 1396 1398 1400 1401 1403 1404 1406 1407 1409 1410 1412 1413 1414 1416 1417 1418 1420 1421 1423 1424 1426 1427 1428 1429 1431
1355 1358 1360 1362 1364 1366 1369 1372 1374 1377 1379 1381 1383 1385 1387 1389 1391 1393 1395 1397 1399 1400 1402 1403 1405 1406 1408 1409 1411 1412 1413 1415 1417 1418 1419 1421 1422 1424 1425 1426 1428 1429
1353 1355 1357 1360 1362 1365 1367 1370 1372 1375 1377 1379 1381 1383 1385 1387 1389 1391 1393 1394 1396 1398 1399 1401 1403 1404 1405 1407 1408 1410 1411 1413 1414 1416 1417 1419 1420 1422 1423 1424 1426 1427
1351 1353 1355 1357 1360 1363 1366 1368 1371 1373 1375 1377 1379 1381 1383 1385 1387 1389 1390 1392 1394 1395 1397 1398 1400 1401 1403 1404 1406 1407 1409 1410 1412 1413 1415 1417 1418 1420 1421 1423 1424 1425